sat.trackr.live / text

‹ back to catalog

STARLINK-35371

NORAD 66484 · 2025-262AE

PAYLOAD ACTIVE UNKNOWN

§ Identity

Operator
Country
US
Launch date
2025-11-15
Launch site
AFETR
Launch vehicle
Mass (kg)
RCS (m²)

Purposes: comms

External: N2YO · Heavens-Above · Gunter

§ Orbital elements

Epoch: 2026-09-20T02:20:16.031328Z

Period
94.27 min
Inclination
42.9995°
Eccentricity
0.0000871
Mean motion
15.27584885 rev/d
Perigee alt
482.4 km
Apogee alt
483.6 km
Semi-major
6,861.2 km
B*
2.9207e-4
RAAN
278.6700°
Arg perigee
258.7539°
Mean anomaly
101.3215°
Rev number
4,863

§ Raw data

STARLINK-353711 66484U 25262AE  26263.09740777  .00007785  00000+0  29207-3 0  99942 66484  42.9995 278.6700 0000871 258.7539 101.3215 15.27584885 48630

JSON: /api/v1/satellites/66484 · /tle

For live sub-satellite position, see the globe view (requires WebGL).

§ Visibility from observer

Set your observer location to see the next 7 days of passes ≥ 10°. The values pass through the URL so the page stays shareable.

No JS? Fill the form by hand. The geolocation button needs JavaScript.